Location: Castillon
(43.1358°N, 0.8654°E)
Time: 19:37:08
(UTC+00:00)

PSLV R/B - Pass Details

Date: 24 January 2021
Orbit: 567 x 598 km, 98.2° (Epoch: 28 February)

Event Time Altitude Azimuth Distance (km) Brightness Sun altitude
Exits shadow 18:05:41 - 22° (NNE) 2,447 6.8 -12.3°
Reaches altitude 10° 18:06:57 10° 27° (NNE) 1,946 6.2 -12.6°
Maximum altitude 18:10:59 43° 99° (E) 844 4.3 -13.3°
Drops below altitude 10° 18:14:59 10° 172° (S) 1,927 6.6 -14.0°
Sets 18:17:13 0° 179° (S) 2,821 7.6 -14.4°
